Find OPS 8790

NORAD ID: 10787 Int'l Des: 1978-038 Owner: NRO/CIA Country: US operational
MEOCIRCULAR

Live-Position

3D-Globus wird geladen...

Über OPS 8790

Beschreibung wird geladen...

Nächste Überflüge

Passes for default location (London). Set your location on the main map for personalized predictions.

Höhenverlauf

Loading altitude history...

Zweizeiliger Elementsatz

1 10787U 78038A 26105.16728648 .00000065 00000-0 00000+0 0 9995
2 10787 3.6937 323.6133 0014173 301.1115 50.3139 1.00496563 24621
Epoch: 15. Apr. 2026 • Age: 7 hours

Aktueller Status

Höhe 35773.5 km
Geschwindigkeit 3.07 km/s
Subsatellitenpunkt 3.69°N, 51.79°E
Startdatum 7. Apr. 1978
Alter 48 years
Typ other

Technische Details

Klassifizierung Payload
Masse 700.00 kg
Trockenmasse 300.00 kg
Gesamtmasse 700.00 kg
Länge 8.00 m
Durchmesser 1.50 m
Spannweite 15.00 m
Form Cyl + Dish
Hersteller TRW
Bus-Typ RHYOLITE
Phasenstatus Unknown Transfer Status
Besitzer/Staat NRO/CIA/US

Most Searched